{"data":{"norad_id":52991,"epoch":"2026-05-25T02:45:18.268128Z","epoch_age_seconds":79313,"freshness":"FRESH","line1":"1 52991U 22076F   26145.11479477  .00000587  00000+0  54976-4 0  9995","line2":"2 52991  53.2139 121.0372 0001019  65.4582 294.6517 15.08835302214240","mean_motion":15.08835302,"eccentricity":0.0001019,"inclination_deg":53.2139,"raan_deg":121.0372,"arg_perigee_deg":65.4582,"mean_anomaly_deg":294.6517,"bstar":5.4976e-5,"rev_number":21424,"period_min":95.437851837854,"perigee_km":539.05281543299,"apogee_km":540.46268238281,"semimajor_km":6917.8947489079,"source":"CELESTRAK","updated_at":"2026-05-25T13:38:17.274530Z"}}